Location: Arrodets-la-Barthe
(43.0306°N, 0.2829°E)
Time: 07:23:58
(UTC+00:00)

CUBEBUG 2 - Pass Details

Date: 06 April 2023
Orbit: 577 x 685 km, 97.8° (Epoch: 03 June)

Event Time Altitude Azimuth Distance (km) Brightness Sun altitude
Rises 01:53:23 0° 21° (NNE) 3,049 ? -34.5°
Reaches altitude 10° 01:55:51 10° 31° (NNE) 2,117 ? -34.3°
Enters shadow 01:58:24 26° 56° (NE) 1,308 ? -34.0°
